DB0SWS-6 Weather Reports


time (UTC)temp
F
wind
direction
speed
knots
gust
knots
rain 1hr
in
rain 24hr
in
rain mn
in
humidity
%
barometer
mb
20260507130329 53 270 0.0 0.0 0.00 1.62 0.51 85 961.1
20260507123328 52 270 0.9 1.7 0.00 1.68 0.51 87 961.2
20260507120331 53 27 0.9 1.7 0.00 1.74 0.51 89 961.0
20260507113330 51 22 0.0 0.0 0.00 1.74 0.51 93 961.1
20260507103330 51 263 1.7 4.3 0.00 1.74 0.51 88 960.9
20260507100329 50 270 0.9 1.7 0.00 1.74 0.51 93 960.8
20260507093330 48 315 50.4 50.4 0.00 1.74 0.51 10 960.7
20260507090329 48 0 0.0 0.0 0.00 1.74 0.51 99 960.3
20260507080329 47 270 0.9 0.9 0.00 1.74 0.51 99 960.2
20260507063330 46 248 50.4 50.4 0.00 1.74 0.51 10 959.4
20260507060331 46 248 50.4 50.4 0.01 1.74 0.51 10 959.3
20260507053329 46 248 0.0 0.0 0.02 1.74 0.51 99 959.1
20260507050328 46 248 0.0 0.0 0.05 1.72 0.50 99 958.8
20260507043328 46 225 0.0 0.0 0.06 1.71 0.48 99 958.5
20260507040330 46 248 2.6 5.2 0.08 1.68 0.45 99 958.3
20260507033329 47 312 0.9 4.3 0.11 1.65 0.43 99 957.7
20260507030329 47 267 2.6 6.1 0.07 1.59 0.37 99 957.5
20260507023329 47 289 0.9 1.7 0.06 1.55 0.32 99 957.4
20260507020331 47 277 1.7 2.6 0.08 1.52 0.30 99 957.2
20260507013328 47 256 0.0 0.9 0.06 1.49 0.26 99 957.0
20260507010330 48 315 50.4 50.4 0.14 1.44 0.21 10 956.9
20260507003330 48 292 2.6 5.2 0.13 1.43 0.20 99 956.6
20260507000329 48 248 50.4 50.4 0.01 1.30 0.07 10 956.6
20260506233330 48 248 50.4 50.4 0.02 1.30 0.07 10 956.5
20260506230330 48 248 1.7 2.6 0.05 1.29 0.06 99 956.4
20260506223328 48 278 0.9 1.7 0.00 1.28 0.05 99 956.4
20260506220330 48 242 0.9 1.7 0.00 1.24 0.01 99 956.3
20260506213329 48 262 0.9 1.7 0.17 1.19 1.19 99 956.3
20260506210329 48 315 0.0 0.0 0.18 1.12 1.12 99 956.2
20260506203330 49 328 1.7 2.6 0.21 1.03 1.03 99 956.3
20260506200330 49 309 1.7 5.2 0.25 0.94 0.94 99 956.0
20260506193329 49 276 1.7 2.6 0.21 0.81 0.81 99 955.7
20260506190329 49 248 2.6 5.2 0.15 0.70 0.70 99 955.3
20260506183328 50 270 1.7 2.6 0.09 0.60 0.60 99 954.6
20260506180329 50 252 0.9 2.6 0.07 0.54 0.54 99 954.3
20260506173329 50 270 0.0 0.0 0.07 0.51 0.51 99 954.1
20260506170331 51 270 0.0 0.0 0.05 0.48 0.47 99 953.9
20260506163330 50 202 0.0 0.0 0.04 0.46 0.44 99 954.1
20260506160331 51 267 0.9 1.7 0.04 0.54 0.43 98 954.0
20260506153330 51 248 1.7 2.6 0.06 0.53 0.40 98 954.0
20260506150329 52 248 0.9 1.7 0.19 0.52 0.39 99 953.8
20260506143330 52 338 0.9 4.3 0.22 0.47 0.34 99 953.7
20260506140329 53 225 0.0 0.0 0.08 0.33 0.20 98 953.3
20260506133330 54 0 0.0 0.0 0.06 0.25 0.12 94 953.2